Larissa, Greece

12:11 PM EEST on August 20, 2017 (GMT +0300)
Larisa Air Base

Weather History for LGLR - May, 2013

Change the Weather History Date:

Saturday, May 25, 2013

  Actual Average Record
Temperature  
Mean Temperature 67 °F -  
Max Temperature 82 °F 86 °F - ()
Min Temperature 52 °F 58 °F - ()
Cooling Degree Days 2    
Growing Degree Days 17 (Base 50)    
Moisture  
Dew Point 42 °F    
Average Humidity 37    
Maximum Humidity 67    
Minimum Humidity 14    
Precipitation  
Precipitation 0.00 in 0.03 in - ()
Sea Level Pressure  
Sea Level Pressure 29.89 in    
Wind  
Wind Speed 6 mph ()    
Max Wind Speed 17 mph    
Max Gust Speed -    
Visibility 6.2 miles    
Events      
T = Trace of Precipitation, MM = Missing Value Source: Averaged Metar Reports

Daily Weather History Graph

Daily Weather History Graph

Search for Another Location

Airport or City:

Trip Planner

Search our weather history database for the weather conditions in past years. The results will help you decide how hot, cold, wet, or windy it might be!

Date:

Astronomy

May. 25, 2013 Rise Set
Actual Time 6:08 AM EEST 8:46 PM EEST
Civil Twilight 5:37 AM EEST 9:18 PM EEST
Nautical Twilight 4:57 AM EEST 9:57 PM EEST
Astronomical Twilight 4:14 AM EEST 10:41 PM EEST
Moon 9:14 PM EEST (5/25) 6:17 AM EEST (5/25)
Length of Visible Light 15h 41m
Length of Day
14h 38m
Full, 100% of the Moon is Illuminated
May 25
Full
May 31
Last Quarter
Jun 8
New
Jun 16
First Quarter
Jun 23
Full

Hourly Weather History & Observations

Time (EEST) Temp. Dew Point Humidity Pressure Visibility Wind Dir Wind Speed Gust Speed Precip Events Conditions
12:50 AM 64.4 °F 42.8 °F 45% 29.92 in 6.2 mi SSW 5.8 mph - N/A   Partly Cloudy
1:50 AM 64.4 °F 42.8 °F 45% 29.92 in 6.2 mi SSW 4.6 mph - N/A   Partly Cloudy
2:50 AM 60.8 °F 44.6 °F 55% 29.89 in 6.2 mi Calm Calm - N/A   Partly Cloudy
3:00 AM 61 °F 45 °F 44% 29.91 in 6 mi Calm Calm - -   Scattered Clouds
3:50 AM 55.4 °F 44.6 °F 67% 29.89 in 6.2 mi Calm Calm - N/A   Partly Cloudy
4:50 AM 53.6 °F 42.8 °F 67% 29.89 in 6.2 mi Calm Calm - N/A   Partly Cloudy
5:50 AM 57.2 °F 44.6 °F 63% 29.89 in 6.2 mi South 6.9 mph - N/A   Partly Cloudy
6:50 AM 55.4 °F 44.6 °F 67% 29.89 in - South 5.8 mph - N/A   Clear
7:50 AM 62.6 °F 46.4 °F 55% 29.92 in 6.2 mi Calm Calm - N/A   Partly Cloudy
8:50 AM 69.8 °F 44.6 °F 40% 29.92 in - SW 5.8 mph - N/A   Clear
9:00 AM 69 °F 45 °F 31% 29.92 in 6 mi SW 5.8 mph - -  
9:50 AM 73.4 °F 42.8 °F 33% 29.92 in - WSW 5.8 mph - N/A   Clear
10:50 AM 75.2 °F 42.8 °F 31% 29.92 in 6.2 mi SW 8.1 mph - N/A   Partly Cloudy
11:50 AM 78.8 °F 41.0 °F 26% 29.92 in 6.2 mi WSW 6.9 mph - N/A   Partly Cloudy
12:50 PM 77.0 °F 41.0 °F 28% 29.89 in 6.2 mi WSW 11.5 mph - N/A   Partly Cloudy
1:50 PM 80.6 °F 39.2 °F 23% 29.89 in 6.2 mi SSW 12.7 mph - N/A   Scattered Clouds
2:50 PM 80.6 °F 39.2 °F 23% 29.89 in 6.2 mi SW 12.7 mph - N/A   Scattered Clouds
3:00 PM 81 °F 40 °F 14% 29.88 in 6 mi SW 12.7 mph - -   Partly Cloudy
3:20 PM 82.4 °F 41.0 °F 23% 29.86 in 6.2 mi WSW 11.5 mph - N/A   Scattered Clouds
4:50 PM 82.4 °F 39.2 °F 21% 29.86 in 6.2 mi SW 17.3 mph - N/A   Scattered Clouds
5:50 PM 80.6 °F 39.2 °F 23% 29.86 in 6.2 mi SW 16.1 mph - N/A   Scattered Clouds
6:50 PM 78.8 °F 39.2 °F 24% 29.86 in 6.2 mi SW 16.1 mph - N/A   Scattered Clouds
7:50 PM 77.0 °F 41.0 °F 28% 29.86 in 6.2 mi SW 17.3 mph - N/A   Scattered Clouds
8:50 PM 75.2 °F 41.0 °F 29% 29.86 in 6.2 mi SW 13.8 mph - N/A   Partly Cloudy
9:00 PM 75 °F 40 °F 18% 29.87 in 6 mi SW 13.8 mph - -   Scattered Clouds
9:50 PM 73.4 °F 39.2 °F 29% 29.89 in 6.2 mi SW 10.4 mph - N/A   Partly Cloudy
10:50 PM 68.0 °F 41.0 °F 37% 29.89 in 6.2 mi South 8.1 mph - N/A   Partly Cloudy
11:50 PM 66.2 °F 42.8 °F 43% 29.89 in 6.2 mi South 4.6 mph - N/A   Partly Cloudy